TimeCDT,TemperatureF,Dew PointF,Humidity,Sea Level PressureIn,VisibilityMPH,Wind Direction,Wind SpeedMPH,Gust SpeedMPH,PrecipitationIn,Events,Conditions,WindDirDegrees,DateUTC
12:53 AM,68.0,64.9,90,30.03,10.0,ESE,3.5,-,N/A,,Clear,110,2012-10-24 05:53:00
1:53 AM,68.0,66.0,93,30.02,7.0,East,3.5,-,N/A,,Clear,100,2012-10-24 06:53:00
2:53 AM,68.0,66.0,93,30.01,6.0,ESE,3.5,-,N/A,,Clear,120,2012-10-24 07:53:00
3:53 AM,69.1,66.9,93,30.01,7.0,East,3.5,-,N/A,,Clear,100,2012-10-24 08:53:00
4:53 AM,70.0,66.9,90,30.01,8.0,East,5.8,-,N/A,,Clear,90,2012-10-24 09:53:00
5:53 AM,70.0,68.0,93,30.03,8.0,NE,3.5,-,N/A,,Overcast,50,2012-10-24 10:53:00
6:53 AM,70.0,66.9,90,30.04,8.0,East,3.5,-,N/A,,Mostly Cloudy,90,2012-10-24 11:53:00
7:53 AM,71.1,68.0,90,30.06,9.0,ENE,5.8,-,N/A,,Mostly Cloudy,70,2012-10-24 12:53:00
8:53 AM,73.0,69.1,87,30.07,10.0,East,6.9,-,N/A,,Partly Cloudy,90,2012-10-24 13:53:00
9:53 AM,78.1,69.1,74,30.07,10.0,East,6.9,-,N/A,,Mostly Cloudy,100,2012-10-24 14:53:00
11:53 AM,84.0,66.9,56,30.05,10.0,East,10.4,-,N/A,,Clear,100,2012-10-24 16:53:00
12:53 PM,84.9,63.0,48,30.03,10.0,East,10.4,-,N/A,,Clear,100,2012-10-24 17:53:00
1:53 PM,86.0,62.1,44,30.01,10.0,ESE,5.8,-,N/A,,Clear,120,2012-10-24 18:53:00
2:53 PM,87.1,62.1,43,29.98,10.0,ESE,8.1,-,N/A,,Clear,110,2012-10-24 19:53:00
3:53 PM,84.0,62.1,47,29.98,10.0,SE,3.5,-,N/A,,Partly Cloudy,140,2012-10-24 20:53:00
4:53 PM,84.0,63.0,49,29.97,10.0,ESE,9.2,-,N/A,,Clear,120,2012-10-24 21:53:00
5:53 PM,82.0,63.0,52,29.96,10.0,East,6.9,-,N/A,,Clear,100,2012-10-24 22:53:00
6:53 PM,75.9,66.0,71,29.97,10.0,South,4.6,-,N/A,,Clear,190,2012-10-24 23:53:00
7:53 PM,73.9,66.0,76,29.99,10.0,Calm,Calm,-,N/A,,Scattered Clouds,0,2012-10-25 00:53:00
8:53 PM,73.0,66.9,81,30.00,10.0,ESE,5.8,-,N/A,,Scattered Clouds,120,2012-10-25 01:53:00
9:53 PM,70.0,66.0,87,30.00,10.0,SE,3.5,-,N/A,,Clear,140,2012-10-25 02:53:00
11:53 PM,68.0,64.0,87,29.99,6.0,Calm,Calm,-,N/A,,Clear,0,2012-10-25 04:53:00